Location: Gro�wechsungen
(51.4926°N, 10.6901°E)
Time: 18:26:31
(UTC+00:00)

Cosmos 1072 Rocket - Pass Details

Date: 18 September 2020
Orbit: 949 x 1008 km, 82.9° (Epoch: 21 October)

Event Time Altitude Azimuth Distance (km) Brightness Sun altitude
Rises 18:48:47 0° 185° (S) 3,651 7.3 -13.7°
Reaches altitude 10° 18:51:16 10° 185° (S) 2,716 6.7 -14.1°
Maximum altitude 18:57:30 84° 97° (E) 998 4.5 -15.0°
Drops below altitude 10° 19:03:53 10° 11° (N) 2,775 7.0 -15.9°
Sets 19:06:26 0° 11° (N) 3,735 7.7 -16.3°
